Simultaneous Nadir Overpasses (SNOs) Predictions

Prediction of SNOs between AQUA and NOAA-19 Satellite Orbit:

Table of predicted SNOs for the next 14.0 days since TLE Epoch: 5/23/2015
Index Date (AQUA) Time (AQUA) Lat,Lon (AQUA) SZA (AQUA ) Date (NOAA-19) Time (NOAA-19) Lat,Lon (NOAA-19) SZA (NOAA-19 ) Distance(km) Time Diff (sec)
1 05/23/2015 20:11:50 -79.92, 27.44 119.43 05/23/2015 20:11:32 -79.92, 27.35 119.41 1.86 18
2 05/26/2015 00:56:58 -81.29, -59.50 117.14 05/26/2015 00:55:44 -80.89, -60.28 117.29 46.82 74
3 05/26/2015 01:45:35 79.86, 124.46 60.08 05/26/2015 01:45:56 79.85, 124.54 60.06 1.75 21
4 05/28/2015 06:29:58 79.98, 52.41 59.91 05/28/2015 06:29:23 79.98, 52.34 59.93 1.37 35
5 05/28/2015 07:19:21 -79.85,-138.96 120.30 05/28/2015 07:20:16 -79.85,-138.99 120.32 0.45 55
6 05/30/20
